DELTA 1 DEB, 7035

Orbit data source: Space-Track

DELTA 1 DEB, 7035 is space debris in LEO originally from a launch on Tue, 06 Nov 1973 UTC launched from the Air Force Western Test Range (AFWTR). Debris objects in space refer to the collection of defunct objects orbiting the Earth. Examples of debris include non-operational satellites, rocket bodies, and fragments generated from explosions, collisions, or faulty payload assembly.

Loading next visibility...
Identifier
7035, 1973-086AB
Orbit
LEO
Country
Flag of USUS
Related business
Manufacturer
Unknown
Mission
Spacecraft
Bus & Motor
Unknown
Mass
Unknown
Launch date (UTC)
1973-11-06 (52 years ago)
Launch vehicle
Unknown
Launch site
Air Force Western Test Range (AFWTR)
Object type
Payload
Rocket body
Debris
Shape & HBR
Unknown
Radar Cross Section
Medium (>0.1 m² and <1 m²)

Expand to show TLE details & history
Last TLE update: 23 hours ago

TLE from 23 hours ago
0 DELTA 1 DEB
1 07035U 73086AB  25260.32875946  .00000093  00000-0  17248-2 0  9994
2 07035 101.7730 206.1710 0314204 205.3863 312.8997 11.83494427238065
Epoch: 2025-09-17T07:53Z
TLE epoch observation values (Epoch: 2025-09-17T07:53:24.817Z)
Latitude
23.90039°
Longitude
-83.41511°
Altitude
1,588.59 km
Speed
7.15 km/s
True Right ascension
02h 05m 46s
True Declination
23° 47' 12"
Sunlit
Object was in full shadow at epoch
Visualization orbit readout
Latitude
Unknown
Longitude
Unknown
Altitude
Unknown
Speed
Unknown
Apparent Right ascension
Unknown
Apparent Declination
Unknown
Sunlit
N/A
Visualization observer readout
Local Sidereal Time
23:33:30
Azimuth
Unknown
Elevation
Unknown
Doppler factor
Unknown
Orbital elements
Apogee altitude
2,008.741 km
Perigee altitude
1,497.758 km
Semi-major axis
8,131.387 km
Eccentricity
0.03142
Inclination
101.773°
RAAN
206.171°
Arg. of periapsis
205.3863°
True anomaly
310.1908°
Mean anomaly
312.8997°
Eccentric anomaly
311.55248°
Mean motion
2.96003 °/min
Orbital period
121.62 mins
BSTAR
0.0017248
Loading maneuver chart data...
Computing Atmospheric mass density...
Loading historical data...
Loading historical data...
Loading historical data...
Loading historical data...
Loading historical data...
Loading historical data...
Loading historical data...

Documentation

Showing up to 5 results
|